Regional Weather Roundup
Issued by NWS Northern Indiana

Home | Current Version | Previous Version | Text Only | Print | Product List | Glossary On
Versions: 1 2 3 4 5 6 7 8 9 10 11 12 13 14 15 16 17 18 19 20 21 22 23 24 25 26 27 28 29 30 31 32 33 34 35 36 37 38 39 40 41 42 43 44 45 46 47 48 49 50
000
ASUS43 KIWX 032100
RWRIWX

KIWX WEATHER ROUNDUP
NATIONAL WEATHER SERVICE NORTHERN INDIANA
500 PM EDT SUN MAY 03 2015

NOTE: "FAIR" INDICATES FEW OR NO CLOUDS BELOW 12,000 FEET WITH NO
SIGNIFICANT WEATHER AND/OR OBSTRUCTIONS TO VISIBILITY.

* THESE STATIONS ARE NOT UNDER NWS QUALITY CONTROL. THEY ALSO MAY NOT
  REPORT WEATHER SUCH AS PRECIPITATION OR FOG.

INZ001>027-032200-
NORTHERN INDIANA

CITY           SKY/WX    TMP DP  RH WIND       PRES   REMARKS
GARY*          PTSUNNY   81 N/A N/A S12       29.92F
SOUTH BEND     PTSUNNY   79  42  26 S13G26    29.97F
GOSHEN         PTSUNNY   78  47  33 SW15G26   29.98F
ANGOLA*        MOSUNNY   79  72  78 S12       30.00F
FORT WAYNE     PTSUNNY   78  46  32 SW15G21   30.02F

$$
INZ028>050-032200-
CENTRAL INDIANA

CITY           SKY/WX    TMP DP  RH WIND       PRES   REMARKS
LAFAYETTE      MOSUNNY   77  47  34 SW8G21    29.98F
MUNCIE*        MOSUNNY   77  46  33 SW10G21   30.03F
INDIANAPOLIS   PTSUNNY   75  46  35 SW8       30.01F

$$
MIZ043>046-050>051-056>058-064>065-071>073-077>080-032200-
SOUTHWEST LOWER MICHIGAN

CITY           SKY/WX    TMP DP  RH WIND       PRES   REMARKS
BATTLE CREEK   CLOUDY    76  45  33 SW13      29.98F
BENTON HARBOR  MOSUNNY   77  47  34 SW12      29.94F
COLDWATER*     CLOUDY    74  43  32 SW14G23   29.99F
HILLSDALE*     MOSUNNY   78  43  28 S14G20    30.00F
HOLLAND        CLOUDY    76  47  35 SW13      29.96F
GRAND RAPIDS   CLOUDY    77  45  32 SW14      29.96S
KALAMAZOO      CLOUDY    79  46  31 SW13      29.97F
STURGIS*       PTSUNNY   75  48  38 SW14G22   29.98F
THREE RIVERS*  FAIR      77  46  33 SW9G21    29.97F

$$
OHZ001>008-015>018-024>025-032200-
NORTHWEST OHIO

CITY           SKY/WX    TMP DP  RH WIND       PRES   REMARKS
DEFIANCE       MOSUNNY   78  44  29 SW12G21   30.01F
FINDLAY        MOSUNNY   78  46  32 SW16      30.03F
TOLEDO EXPRESS MOSUNNY   78  43  28 SW10      30.00F
TOLEDO METCALF MOSUNNY   79  42  26 SW13G22   30.02F
LIMA           MOSUNNY   75  46  35 SW15G23   30.04F

$$
AND FOR LAKE MICHIGAN COASTAL AND OPEN LAKE BUOY OBSERVATIONS

STATION/POSITION TEMP    WIND        PRES    VSBY  WAVE
                 AIR SEA DIR/SP/G                  HT/PER
                 (F)     (DEG/KT/KT) (MB)    (MI)  (FT/S)
CALUMET HARBOR    78     190/  9/ 12   N/A
MICHIGAN CITY     77     200/ 12/ 19   N/A
BURNS HARBOR      76     200/ 12/ 17 1014.2S
SAINT JOSEPH      66     180/  8/ 10 1014.9F
4 MI NW BRIDGMAN  63 51  140/  2/  2   N/A           1
MICHIGAN CITY     64 51  230/  8/ 10   N/A           1/ 3
SAINT JOSEPH CG                      1014.1      6   1

$$
&&



USA.gov is the U.S. government's official web portal to all federal, state and local government web resources and services.